Arica, Peru

5:44 PM PET on December 05, 2019 (GMT -0500)
Chacalluta International

Weather History for SCAR - July, 2019

Change the Weather History Date:

Monday, July 22, 2019

  Actual Average Record
Temperature  
Mean Temperature 62 °F -  
Max Temperature 64 °F 62 °F 71 °F (1997)
Min Temperature 59 °F 57 °F 50 °F (2001)
Degree Days  
Heating Degree Days 4    
Growing Degree Days 12 (Base 50)    
Moisture  
Dew Point 54 °F    
Average Humidity 75    
Maximum Humidity 88    
Minimum Humidity 58    
Precipitation  
Precipitation 0.00 in 0.00 in - ()
Sea Level Pressure  
Sea Level Pressure 30.03 in    
Wind  
Wind Speed 4 mph ()    
Max Wind Speed 12 mph    
Max Gust Speed -    
Visibility 6.0 miles    
Events      
Averages and records for this station are not official NWS values.
T = Trace of Precipitation, MM = Missing Value Source: Averaged Metar Reports

Daily Weather History Graph

Daily Weather History Graph

Search for Another Location

Airport or City:

Astronomy

Jul. 22, 2019 Rise Set
Actual Time 7:12 AM CLT 6:23 PM CLT
Civil Twilight 6:48 AM CLT 6:46 PM CLT
Nautical Twilight 6:22 AM CLT 7:13 PM CLT
Astronomical Twilight 5:55 AM CLT 7:39 PM CLT
Moon 11:16 PM CLT (7/22) 11:02 AM CLT (7/22)
Length of Visible Light 11h 57m
Length of Day
11h 11m
Waning Gibbous, 72% of the Moon is Illuminated
Jul 22
Waning Gibbous
Jul 24
Last Quarter
Jul 31
New
Aug 7
First Quarter
Aug 15
Full

Hourly Weather History & Observations

Time (CLT) Temp. Dew Point Humidity Pressure Visibility Wind Dir Wind Speed Gust Speed Precip Events Conditions
12:00 AM 60.8 °F 55.4 °F 82% 30.01 in 5.0 mi Calm Calm - N/A   Overcast
1:00 AM 59.0 °F 55.4 °F 88% 30.04 in 3.1 mi Calm Calm - N/A   Haze
2:00 AM 60 °F 55 °F 77% 30.03 in 4 mi NE 3.5 mph - -   Haze
2:00 AM 59.0 °F 55.4 °F 88% 30.01 in 4.3 mi NE 3.5 mph - N/A   Overcast
3:00 AM 59.0 °F 55.4 °F 88% 30.01 in 6.2 mi North 1.2 mph - N/A   Overcast
4:00 AM 59.0 °F 53.6 °F 82% 29.98 in 6.2 mi NNE 4.6 mph - N/A   Overcast
5:00 AM 59 °F 54 °F 79% 29.97 in 6 mi NW 2.3 mph - -   Partly Cloudy
5:00 AM 59.0 °F 53.6 °F 82% 29.95 in 6.2 mi NW 2.3 mph - N/A   Overcast
6:00 AM 59.0 °F 53.6 °F 82% 29.98 in 5.0 mi WSW 1.2 mph - N/A   Overcast
7:00 AM 60.8 °F 53.6 °F 77% 30.01 in 5.6 mi NE 4.6 mph - N/A   Overcast
8:00 AM 60 °F 54 °F 76% 30.01 in 6 mi North 5.8 mph - -   Partly Cloudy
8:00 AM 59.0 °F 53.6 °F 82% 30.01 in 6.2 mi North 5.8 mph - N/A   Overcast
9:00 AM 60.8 °F 53.6 °F 77% 30.01 in 6.2 mi WNW 3.5 mph - N/A   Overcast
10:00 AM 60.8 °F 53.6 °F 77% 30.04 in 5.0 mi WSW 2.3 mph - N/A   Overcast
11:00 AM 62 °F 53 °F 63% 30.04 in 12 mi Calm Calm - -   Partly Cloudy
11:00 AM 62.6 °F 53.6 °F 72% 30.04 in 6.2 mi Variable 2.3 mph - N/A   Overcast
12:00 PM 62.6 °F 50.0 °F 63% 30.04 in 6.2 mi SW 5.8 mph - N/A   Overcast
1:00 PM 64.4 °F 53.6 °F 68% 30.04 in 6.2 mi WSW 6.9 mph - N/A   Overcast
2:00 PM 64 °F 53 °F 58% 30.02 in 6 mi WSW 8.1 mph - -   Partly Cloudy
2:00 PM 64.4 °F 53.6 °F 68% 30.01 in 6.2 mi WSW 8.1 mph - N/A   Overcast
3:00 PM 64.4 °F 53.6 °F 68% 30.01 in 6.2 mi WSW 9.2 mph - N/A   Overcast
4:00 PM 64.4 °F 51.8 °F 64% 30.01 in 6.2 mi WSW 11.5 mph - N/A   Overcast
5:00 PM 63 °F 54 °F 64% 30.01 in 6 mi WSW 9.2 mph - -   Partly Cloudy
5:00 PM 62.6 °F 53.6 °F 72% 30.01 in 6.2 mi WSW 9.2 mph - N/A   Overcast
6:00 PM 62.6 °F 53.6 °F 72% 30.04 in 6.2 mi WSW 8.1 mph - N/A   Overcast
7:00 PM 62.6 °F 53.6 °F 72% 30.04 in 6.2 mi SSW 5.8 mph - N/A   Overcast
8:00 PM 61 °F 54 °F 70% 30.08 in 6 mi South 6.9 mph - -   Partly Cloudy
8:00 PM 60.8 °F 53.6 °F 77% 30.06 in 6.2 mi South 6.9 mph - N/A   Overcast
9:00 PM 60.8 °F 53.6 °F 77% 30.06 in 6.2 mi South 5.8 mph - N/A   Overcast
10:00 PM 60.8 °F 53.6 °F 77% 30.09 in 6.2 mi South 5.8 mph - N/A   Overcast
11:00 PM 60 °F 53 °F 72% 30.10 in 6 mi South 5.8 mph - -   Partly Cloudy
11:00 PM 60.8 °F 53.6 °F 77% 30.09 in 6.2 mi South 5.8 mph - N/A   Overcast